map of DME home
Great Circle Mapper logo
DME - Airport
Location
City:  Moscow, Russian Federation (Russia)
Name:Domodedovo International Airport
ICAO / IATA:UUDD / DME

Details
Type:Airport (Aerodrome, Airfield)
Use:Public/Civil, International (customs port of entry)
Latitude:5524'32"N (55.408786)
Longitude:3754'23"E (37.906314)
Datum:WGS 1984
Elevation:588 ft (179 m)
Variation:10.5E (WMM2010 magnetic declination)
Runways:3
Longest:12448 × 174 ft (3794 × 53 m), paved

Time
Time Zone:UTC+3 (DST+4)

Weather
METAR:UUDD 230630Z 29003MPS 260V330 CAVOK M06/M08 Q1030 32290095 82290095 NOSIG
TAF:UUDD 230455Z 2306/2412 VRB02MPS 8000 SCT020 PROB40
TEMPO 2318/2406 0300 FZFG VV002

Related Locations
Nearby:
Farthest:CHT: 10721 mi / 17254 km
Waitangi [Tuuta], Chatham Islands, NZ

Find:

   beyond  
but within

Other Information
Maps:
NOTAMs:
Links:
Sources:

  
flag of Russian Federation (Russia)
flag of Moscow
  

Sectional Chart

Flight Planning
at skyvector.com

Satellite Image

Google Maps Satellite View

 

Copyright © 2004-2014 Karl L. Swartz. All rights reserved.
The Great Circle Mapper name and logo are trademarks of the Great Circle Mapper.
All other trademarks mentioned herein belong to their respective owners.
Please see credits for attibutions and further copyright information.

  Follow gcmap on Facebook Follow gcmap on Twitter

hCard Microformat

Geo Microformat